Погода в Красном

Россия / Хабаровский край     53°06′55″N   140°51′30″E
темп.,
°C
ветер,
м/с
пор.,
м/с
влажн.,
%
обл.,
%
осадки,
мм/ч
давл.,
гПа
погр.,
м
19 января, вт
вт1901:00−31зюз33942 0.0 101544
04:00−32зюз35901 0.0 1014109
07:00−32з22930 0.0 101430
10:00−30з249535 0.0 1014174
13:00−26з388889 0.0 1013474
16:00−27з3129057 0.0 1013609
19:00−30з37910 0.0 1014140
22:00−29з3158929 0.0 1015515
20 января, ср
ср2001:00−30з3128866 0.0 1015370
04:00−30з389046 0.0 1016189
07:00−30з36900 0.0 1018168
10:00−29з35891 0.0 1019138
13:00−24з38750 0.0 1020351
16:00−24з23860 0.0 1020104
19:00−29зюз22810 0.0 102119
22:00−29зюз117623 0.0 102019
21 января, чт
чт2101:00−29зюз11764 0.0 101919
04:00−27зсз128351 0.0 101819
07:00−26зсз1188100 0.0 101635
10:00−24зсз1197100 0.2 1016113
13:00−22зсз2395100 0.3 1015251
16:00−22зсз2397100 0.5 1016291
19:00−23з2498100 0.4 1017196
22:00−24зюз2997100 0.8 1017475
22 января, пт
пт2201:00−23з2897100 0.1 1016496
04:00−24з289799 0.2 1017410
07:00−25з2897100 0.1 1017411
10:00−25з399499 0.1 1018502
13:00−24зсз4890100 0.1 1018643
16:00−24зсз51085100 0.1 1018697
19:00−28з3118398 0.0 1019413
22:00−31з368576 0.0 1020172
23 января, сб
сб2301:00−32з35873 0.0 1020122
04:00−31з316861 0.0 1022535
07:00−32з315890 0.0 1022571
10:00−30зсз417860 0.0 1024691
13:00−27зсз411780 0.0 1023654
16:00−27з25870 0.0 1024349
19:00−31зюз22930 0.0 102520
22:00−31зюз22930 0.0 102620